Terug naar catalogus

STARLINK-32571

ActiefCommunicatieVLEO
NORAD 62055·PAYLOAD·🇺🇸 United States

Gelanceerd Nov 21, 2024 vanaf Cape Canaveral Space Force Station

Loading…

Volgende Passages (komende 24 uur)

TLE

VersSource: CelesTrak SupGP

Epoch: Sep 15, 2026, 03:24 UTC

1 62055C 24216Z   26258.14215278 -.00027401  00000+0 -99252-3 0  2589
2 62055  42.9996 265.8647 0000971 274.1327 172.2326 15.27590292    16

Volg STARLINK-32571 in realtime met AllMySat

Download on the App Store